Total_Precipitation_Accumulation
0.21 0.48 0.90 1.51 2.04 2.32 1.98 1.35 1.00 0.90 0.89 0.84 0.86 0.93 1.01 1.14 1.74 2.87 2.71 2.23 1.95 1.84 1.83 2.09 2.38 2.31 2.43 2.45 2.37 2.41 2.33 2.35 2.47 2.56 2.61 2.62 2.49 2.44 2.37 2.27 2.39 2.46 2.39 2.50 2.39 2.16 2.01 1.85 1.73
0.34 0.72 1.18 1.68 2.32 2.41 1.93 1.20 0.92 0.88 0.81 0.69 0.71 0.89 1.03 1.02 1.16 1.80 2.26 2.10 1.62 1.55 1.64 1.72 2.12 2.15 2.04 1.97 2.03 2.22 2.16 2.11 2.20 2.40 2.61 2.73 2.74 2.61 2.52 2.42 2.44 2.40 2.35 2.50 2.32 2.06 1.80 1.65 1.63
0.51 0.92 1.41 1.76 1.72 1.75 1.52 0.97 0.77 0.63 0.73 0.76 0.74 0.78 1.09 1.27 1.26 1.63 1.96 1.75 1.39 1.30 1.46 1.71 1.89 1.89 1.78 1.72 1.81 2.01 1.93 1.96 2.04 2.13 2.37 2.57 2.71 2.82 2.77 2.55 2.38 2.30 2.33 2.35 2.20 1.94 1.68 1.50 1.52
0.75 1.08 1.24 1.37 1.05 0.95 0.86 0.70 0.56 0.52 0.60 0.66 0.79 0.98 1.23 1.37 1.38 1.53 1.52 1.35 1.12 1.16 1.32 1.55 1.71 1.63 1.52 1.53 1.68 1.84 1.86 1.90 1.91 1.91 2.16 2.34 2.41 2.49 2.55 2.49 2.27 2.19 2.15 2.13 2.23 1.90 1.66 1.55 1.58
0.82 1.12 1.34 1.06 0.82 0.81 0.71 0.55 0.47 0.44 0.57 0.70 0.76 1.15 1.63 1.68 1.36 1.23 1.17 1.15 1.06 1.14 1.32 1.43 1.58 1.54 1.50 1.56 1.58 1.68 1.85 1.84 1.78 1.86 2.10 2.26 2.30 2.44 2.42 2.28 2.03 1.88 2.00 2.02 2.09 1.91 1.67 1.56 1.60
0.81 1.04 1.04 0.79 0.70 0.66 0.56 0.46 0.45 0.44 0.55 0.77 0.76 1.12 1.99 1.96 1.42 1.19 1.03 1.01 0.97 0.98 1.19 1.32 1.45 1.49 1.50 1.50 1.49 1.55 1.58 1.60 1.68 1.83 2.03 2.05 2.08 2.21 2.18 2.10 1.95 1.73 1.86 1.86 1.78 1.88 1.69 1.61 1.56
0.83 0.82 0.67 0.61 0.58 0.60 0.53 0.43 0.42 0.41 0.59 0.91 0.81 1.18 2.10 2.25 1.53 1.17 1.07 1.03 1.01 0.95 1.06 1.30 1.46 1.49 1.48 1.47 1.44 1.54 1.60 1.54 1.56 1.70 1.87 2.00 1.96 1.91 1.86 1.91 1.89 1.72 1.69 1.61 1.57 1.72 1.79 1.66 1.54
0.48 0.59 0.50 0.47 0.45 0.46 0.40 0.33 0.33 0.50 0.67 0.80 0.73 1.14 2.05 2.04 1.44 1.28 1.30 1.27 1.36 1.34 1.27 1.23 1.27 1.38 1.42 1.35 1.48 1.62 1.66 1.57 1.55 1.67 1.84 2.01 1.92 1.83 1.74 1.61 1.74 1.74 1.63 1.53 1.48 1.61 1.74 1.55 1.55
0.33 0.54 0.50 0.40 0.34 0.32 0.29 0.28 0.31 0.47 0.66 0.88 0.97 1.11 1.45 1.33 1.29 1.42 1.63 1.78 1.84 1.91 1.89 1.59 1.38 1.38 1.48 1.34 1.36 1.72 1.86 1.76 1.87 2.04 2.11 2.28 2.29 2.08 2.05 1.93 2.03 1.92 1.85 1.80 1.77 1.74 1.89 1.68 1.51
0.28 0.41 0.35 0.20 0.19 0.23 0.21 0.25 0.35 0.55 0.84 1.19 1.22 1.24 1.46 1.43 1.30 1.44 1.64 1.89 2.09 2.36 2.37 2.02 1.75 1.52 1.37 1.18 1.45 1.86 1.85 2.01 2.20 2.36 2.26 2.58 2.78 2.62 2.09 2.34 2.65 2.57 2.50 2.34 2.29 2.19 1.99 1.93 1.79
0.25 0.25 0.19 0.14 0.13 0.16 0.19 0.24 0.34 0.64 1.11 1.59 1.85 1.89 1.75 1.61 1.62 1.67 1.78 2.13 2.51 2.71 2.56 2.17 1.95 1.76 1.48 1.55 1.52 1.78 2.12 2.40 2.32 2.15 2.19 2.64 2.56 2.35 2.32 2.50 2.69 2.87 2.69 2.56 2.59 2.64 2.38 2.53 2.92
0.14 0.12 0.10 0.10 0.11 0.14 0.18 0.23 0.36 0.62 1.07 1.34 1.56 1.84 1.98 1.89 2.05 2.09 2.11 2.51 2.88 2.86 2.59 2.27 2.02 1.84 1.74 1.69 1.68 1.82 1.95 2.17 2.25 2.37 2.30 2.56 2.99 2.95 2.86 2.96 2.94 3.04 3.14 3.46 3.25 3.36 3.13 3.02 3.00
0.09 0.09 0.08 0.10 0.12 0.14 0.15 0.26 0.41 0.67 0.80 0.95 1.10 1.28 1.60 2.02 2.44 2.66 2.77 3.11 3.11 3.00 2.83 2.56 2.19 2.16 2.11 2.26 2.36 2.04 2.10 2.19 2.44 2.76 2.73 2.74 3.13 3.14 3.11 3.14 3.25 3.06 3.10 3.30 3.61 3.46 3.53 3.57 3.29
0.10 0.09 0.09 0.13 0.14 0.14 0.21 0.36 0.44 0.73 0.76 0.83 1.03 1.26 1.81 2.43 2.68 3.03 3.43 3.72 3.66 3.48 3.47 3.20 2.79 2.75 2.76 2.68 2.72 2.65 2.37 2.57 2.67 2.85 2.81 2.91 3.18 3.34 3.28 3.09 3.23 3.09 3.05 3.17 3.43 3.47 3.91 3.90 3.79
0.10 0.12 0.16 0.17 0.18 0.19 0.29 0.58 0.63 0.75 0.80 0.92 1.26 1.45 1.91 2.29 2.62 2.79 3.26 3.61 3.64 3.64 3.83 3.77 3.56 3.57 3.55 3.33 3.09 2.89 2.78 2.76 3.04 3.15 3.05 3.10 3.12 3.32 3.29 3.24 3.13 3.11 3.17 3.41 3.49 3.53 3.87 3.87 3.80
0.16 0.25 0.35 0.25 0.22 0.24 0.41 0.92 0.77 0.75 0.95 1.22 1.46 1.59 1.84 2.05 2.46 2.61 2.98 3.50 3.79 3.83 4.07 4.27 4.15 4.17 4.06 3.96 3.72 3.36 3.23 3.26 3.22 3.13 3.18 3.06 3.13 3.20 3.43 3.31 3.08 3.17 3.14 3.39 3.79 3.89 4.09 4.21 4.17
0.28 0.37 0.46 0.41 0.30 0.27 0.47 0.96 0.92 0.95 1.08 1.21 1.36 1.60 1.76 1.78 2.17 2.65 2.98 3.56 4.00 4.15 4.56 4.95 5.01 4.92 4.61 4.29 4.13 4.01 3.86 3.67 3.40 3.33 3.29 3.12 3.04 3.02 3.34 3.31 3.27 3.29 3.50 3.55 3.35 3.98 4.30 4.45 4.35
0.37 0.34 0.38 0.42 0.36 0.35 0.51 0.71 0.82 0.99 1.15 1.26 1.29 1.44 1.47 1.62 2.10 2.67 3.04 3.41 4.09 4.64 5.27 5.39 5.39 5.63 5.39 5.06 4.88 4.69 4.29 3.93 3.63 3.49 3.37 3.07 3.00 2.93 3.31 3.14 3.15 3.28 3.66 3.81 3.90 4.38 4.39 4.23 4.34
0.25 0.33 0.42 0.46 0.38 0.50 0.67 0.82 0.92 1.03 1.10 1.29 1.39 1.33 1.38 1.67 2.10 2.56 2.99 3.43 3.86 4.45 5.09 5.77 5.96 5.81 5.61 5.34 4.89 4.55 4.14 3.91 3.62 3.31 3.08 3.00 2.96 3.09 3.60 3.27 3.58 3.50 3.61 3.70 3.84 4.16 4.15 3.90 4.14
0.20 0.32 0.45 0.50 0.42 0.50 0.72 0.97 1.11 1.09 1.08 1.15 1.34 1.46 1.49 1.75 2.09 2.53 3.04 3.33 3.52 3.86 4.33 4.82 5.17 4.85 4.48 4.31 4.25 4.12 4.04 3.63 3.48 3.40 3.47 3.14 3.15 3.19 3.26 3.55 3.47 3.53 3.68 3.49 3.57 3.94 3.82 3.37 3.75
0.22 0.28 0.32 0.37 0.43 0.56 0.85 1.28 1.33 1.09 1.00 1.04 1.16 1.43 1.64 1.69 1.99 2.32 2.77 3.00 3.14 3.31 3.46 3.64 3.88 3.95 3.96 4.02 4.10 4.25 4.43 4.10 3.96 3.89 3.79 3.32 3.20 3.20 3.30 3.27 3.25 3.42 3.37 3.39 3.38 3.55 3.70 3.54 3.53
0.26 0.20 0.19 0.22 0.45 0.80 0.92 1.55 1.53 1.23 1.16 1.12 1.15 1.28 1.38 1.54 1.66 1.80 2.11 2.54 2.55 2.65 2.90 3.40 3.62 3.73 3.93 4.19 4.21 4.26 4.25 4.19 4.16 4.24 4.15 3.96 3.67 3.44 3.21 3.05 3.04 3.07 2.99 3.15 2.91 3.18 3.41 3.63 3.37
0.19 0.16 0.18 0.23 0.45 0.71 0.76 1.13 1.33 1.33 1.28 1.13 1.08 1.17 1.24 1.32 1.43 1.55 1.76 2.18 2.25 2.22 2.56 3.15 3.71 3.93 4.09 4.30 4.41 4.67 4.49 4.34 4.19 4.24 4.32 4.09 3.80 3.47 3.08 3.06 3.06 3.03 2.92 2.84 2.78 3.03 2.99 3.12 3.18
0.13 0.19 0.29 0.42 0.69 1.09 0.82 0.89 1.30 1.27 1.11 1.01 0.91 0.94 1.04 1.00 1.07 1.28 1.61 2.05 2.24 2.34 2.66 3.11 3.58 3.91 4.07 4.16 4.20 4.31 4.34 4.34 4.10 3.99 3.70 3.27 3.13 3.02 2.78 2.76 2.83 2.75 2.77 2.81 2.77 2.80 2.79 2.86 2.96
0.15 0.30 0.80 1.24 1.51 1.50 0.79 0.82 1.15 0.97 0.90 0.85 0.90 0.90 0.82 0.83 0.91 0.97 1.14 1.28 1.42 1.61 1.91 2.26 2.73 3.06 3.22 3.36 3.43 3.43 3.67 3.71 3.43 3.13 2.92 2.62 2.39 2.28 2.26 2.38 2.49 2.41 2.48 2.54 2.72 2.63 2.53 2.65 2.83
0.16 0.24 0.60 0.92 1.06 1.10 0.92 1.23 1.22 0.86 0.72 0.71 0.79 0.77 0.64 0.60 0.59 0.63 0.74 0.79 1.05 1.35 1.75 2.04 2.20 2.39 2.58 2.69 2.75 2.79 2.88 2.82 2.63 2.70 2.44 2.25 2.10 2.00 2.09 2.19 2.20 2.16 2.21 2.16 2.51 2.36 2.31 2.43 2.50
0.13 0.15 0.24 0.34 0.46 0.81 1.06 1.38 1.28 0.94 0.85 0.77 0.65 0.58 0.52 0.43 0.42 0.48 0.52 0.61 0.86 1.16 1.44 1.62 1.80 2.07 2.31 2.48 2.45 2.40 2.25 2.24 2.31 2.28 2.14 2.05 2.10 2.01 2.09 2.04 2.09 2.09 2.15 2.24 2.39 2.26 2.23 2.47 2.43
0.13 0.17 0.23 0.30 0.52 0.87 1.08 1.38 1.47 1.17 1.03 0.82 0.76 0.79 0.55 0.41 0.39 0.47 0.52 0.59 0.75 0.88 1.13 1.30 1.54 1.88 2.08 2.19 2.15 2.05 2.07 2.01 2.07 2.05 2.03 1.99 2.03 2.09 2.11 2.08 2.19 2.12 2.09 2.14 2.22 2.01 2.05 2.32 2.38
0.17 0.18 0.20 0.24 0.31 0.60 1.04 1.25 1.08 0.98 0.87 0.72 0.72 0.70 0.61 0.55 0.43 0.40 0.47 0.53 0.66 0.84 1.05 1.34 1.59 1.73 1.80 1.82 1.85 1.94 1.93 1.91 1.99 1.98 1.93 1.96 2.09 2.11 2.04 2.00 2.03 2.05 2.03 2.09 2.16 1.94 2.07 2.22 2.27
0.17 0.17 0.19 0.27 0.28 0.32 0.60 0.93 0.75 0.70 0.74 0.70 0.69 0.70 0.68 0.58 0.55 0.55 0.62 0.67 0.76 0.89 1.03 1.34 1.65 1.73 1.75 1.83 1.98 2.13 2.21 2.24 2.22 2.02 1.91 1.96 2.03 2.04 2.05 2.05 2.04 1.95 1.99 2.21 2.27 2.10 2.18 2.28 2.24